Theta_e
343 343 341 340 340 339 338 338 337 339 339 339 338 333 332 331 333 332 334 334 336 335 335 334 334 334 334 333 332 333 334 333
343 344 343 344 342 340 339 336 336 339 339 338 336 333 329 335 333 332 330 330 333 332 334 332 333 334 334 332 331 333 332 332
343 344 343 344 345 342 339 339 338 336 338 337 335 334 336 334 333 331 328 330 332 332 332 331 333 333 332 332 331 332 332 331
342 343 343 345 343 343 343 342 341 339 338 337 336 336 334 332 329 326 329 331 330 328 330 331 332 332 331 331 331 331 331 330
342 343 343 344 342 341 343 342 341 340 339 337 335 334 332 329 330 330 331 332 333 330 330 332 332 331 331 331 329 328 326 325
342 342 343 341 341 341 341 339 339 338 337 336 334 333 332 331 331 331 331 330 333 333 331 331 331 330 329 328 326 325 324 323
340 341 342 342 342 340 339 338 338 338 337 335 334 333 332 331 331 330 331 329 329 331 331 331 330 329 328 326 326 325 323 322
338 340 340 340 340 339 337 337 336 337 336 334 334 332 331 331 330 331 329 329 330 330 329 329 329 328 327 326 326 324 322 321
336 339 339 339 337 337 337 337 336 334 334 333 333 332 330 331 331 330 329 331 330 328 327 327 327 327 326 327 325 323 321 320
334 337 339 337 336 336 335 335 334 333 332 332 331 331 330 330 330 330 331 329 328 326 326 327 326 326 326 326 325 322 322 320
333 336 338 337 337 335 334 334 331 331 331 331 330 330 330 330 329 330 329 328 328 326 326 325 325 325 325 325 324 322 322 319
332 335 337 336 335 333 333 333 330 330 330 329 329 329 329 329 328 328 329 327 327 325 325 325 325 325 324 325 323 322 322 319
332 334 336 332 333 332 332 332 330 330 329 327 328 328 328 328 328 327 327 327 327 325 325 325 325 325 324 324 323 323 322 319
332 333 336 332 332 334 332 330 328 328 328 327 327 327 327 327 327 328 327 326 327 324 325 325 325 324 324 324 324 323 322 321
332 333 335 334 334 332 332 331 329 329 330 328 327 327 327 326 326 327 326 325 325 323 324 324 325 324 324 323 324 325 322 321
331 333 333 333 334 332 331 330 329 329 329 329 327 328 327 326 326 325 324 324 323 321 323 324 324 324 324 322 321 321 324 324
329 331 332 333 333 332 330 328 328 328 329 329 329 328 326 326 325 325 324 323 322 321 322 323 324 324 324 323 323 323 322 321
328 330 330 329 330 330 328 327 327 328 328 328 328 327 326 326 325 324 323 322 321 321 321 322 323 324 323 322 322 322 322 321
327 330 328 325 327 327 327 327 326 325 325 326 326 325 324 323 324 322 322 320 319 320 320 322 322 323 323 322 322 321 320 319
325 328 325 325 327 326 326 326 325 325 327 326 325 323 323 323 320 319 320 320 320 319 319 321 322 323 323 322 322 321 322 321
Wind_Speed
15 15 15 18 19 20 22 20 19 21 23 26 26 25 26 23 26 23 21 20 20 22 24 24 24 23 24 25 22 18 14 13
15 16 16 16 17 21 21 21 20 21 25 27 27 24 24 31 27 25 23 22 23 25 23 24 24 24 25 23 21 19 13 13
16 17 17 16 17 19 21 21 21 23 24 26 25 22 25 25 27 26 23 23 24 23 24 25 26 25 24 22 19 12 12 10
18 19 19 18 17 17 20 19 20 21 21 22 22 23 26 26 25 24 25 24 23 22 23 26 24 21 20 20 14 11 9 8
20 20 20 21 18 19 18 20 20 21 22 24 24 23 25 24 18 22 22 22 18 20 24 24 21 20 19 15 10 10 9 9
21 22 21 22 21 20 19 26 23 26 27 25 25 23 24 24 21 23 21 23 21 20 24 23 20 18 18 14 12 11 10 10
24 24 24 23 27 22 17 23 26 29 30 31 28 25 25 24 22 22 22 27 25 24 23 21 20 18 17 15 14 11 11 11
24 27 26 24 23 22 21 20 22 27 30 30 29 30 28 25 24 23 24 27 28 28 25 23 20 18 17 16 14 12 13 12
26 28 27 26 25 22 20 20 20 24 29 29 29 33 32 28 25 25 26 24 28 27 27 24 21 19 18 17 14 12 13 14
24 27 29 28 26 23 21 18 19 22 24 27 30 32 36 34 26 25 23 29 26 31 29 25 23 22 20 18 15 13 13 15
25 29 31 30 26 22 20 18 20 23 26 27 27 32 35 30 29 25 27 30 28 29 30 27 25 23 20 19 16 14 14 15
23 28 29 29 26 23 19 16 17 22 24 27 28 31 35 34 31 25 32 31 27 30 30 28 27 26 21 19 17 14 15 16
23 26 29 31 30 28 22 21 21 20 20 25 28 32 36 38 37 34 36 32 30 31 31 30 27 25 24 20 15 12 13 16
22 25 29 29 28 26 18 21 20 20 20 24 26 30 35 34 35 37 36 33 30 32 32 30 28 29 27 22 8 10 14 16
21 25 29 27 26 23 18 17 13 19 19 22 27 30 32 35 35 35 43 38 33 35 34 34 28 29 28 22 10 9 19 18
18 23 28 28 28 25 24 22 17 18 20 19 23 25 25 32 35 35 38 42 39 38 37 35 32 30 28 23 18 15 12 8
18 23 26 26 28 23 22 18 14 14 19 20 21 20 26 30 35 38 42 43 40 42 37 34 33 31 29 23 19 18 18 11
19 23 25 24 25 21 20 19 16 15 17 17 17 18 24 29 31 38 41 43 42 45 43 37 33 32 29 27 25 20 16 13
17 24 24 23 23 21 20 18 16 17 18 20 16 21 23 27 33 37 38 37 43 45 42 39 34 32 32 28 23 21 15 15
16 21 21 23 23 22 20 16 15 17 17 15 16 21 26 29 35 36 38 39 44 43 40 39 36 33 32 28 24 20 16 14
Wind_Direction
170 176 186 185 187 192 195 197 194 187 188 189 193 193 186 181 182 178 179 168 172 170 171 176 174 169 162 158 153 145 147 144
174 175 183 192 194 196 199 203 200 192 193 190 196 198 187 177 178 180 176 176 179 173 183 170 178 168 165 162 162 152 154 145
186 182 186 195 195 200 197 206 207 202 200 201 204 183 179 180 174 185 183 181 180 181 178 178 178 169 166 170 165 165 158 152
194 191 189 192 195 193 196 202 207 207 201 193 187 180 181 180 178 192 192 179 181 182 183 182 167 160 166 170 169 169 159 162
202 196 195 192 191 193 198 196 202 205 201 192 187 182 183 191 203 191 184 177 174 175 181 169 167 165 167 170 171 170 175 177
207 201 198 197 195 193 202 204 204 207 204 200 196 195 195 201 203 188 178 185 175 176 173 174 171 167 167 172 170 170 173 169
210 203 200 196 199 196 193 203 211 215 214 210 199 201 199 203 197 193 194 186 185 175 173 170 168 166 169 168 167 169 170 168
211 206 203 196 192 192 195 197 207 216 217 210 207 202 201 205 199 198 193 188 188 179 174 172 166 174 169 171 169 170 169 166
214 209 203 199 196 195 195 197 201 214 221 214 210 217 208 202 209 204 198 188 183 181 178 174 173 176 174 172 169 168 167 167
215 207 203 198 197 194 197 196 195 206 213 215 215 212 212 209 208 202 190 187 184 175 172 177 180 178 177 173 170 169 168 169
213 204 201 197 194 191 193 197 197 209 214 218 213 212 211 210 206 199 192 184 182 179 176 179 182 180 176 171 168 170 173 175
208 201 198 194 184 180 184 192 197 209 217 218 218 214 211 207 203 204 187 180 183 178 177 185 182 179 172 168 168 174 177 178
201 197 193 184 178 172 182 191 200 206 214 218 220 214 209 211 209 213 189 185 186 180 183 183 182 177 164 158 162 173 181 183
200 195 189 185 183 185 189 186 201 209 208 215 218 221 214 210 207 204 185 181 183 179 182 181 179 176 168 164 156 174 192 192
198 191 188 186 187 183 184 186 190 204 209 211 214 220 221 215 212 200 191 183 180 178 183 184 174 176 183 178 170 187 176 190
194 192 187 186 185 186 189 189 195 206 213 217 218 214 213 218 210 202 185 187 186 183 183 185 178 180 184 192 188 178 179 173
185 185 186 182 187 190 191 200 200 201 215 219 217 217 226 225 220 211 200 192 187 183 183 186 184 183 185 184 180 170 202 182
180 184 182 178 185 190 193 192 189 203 215 219 221 219 228 228 224 206 195 190 186 184 182 186 185 186 184 187 188 184 186 200
186 187 177 174 180 186 192 191 195 216 220 226 222 224 224 219 219 204 187 185 183 183 182 185 188 187 186 189 194 197 196 199
191 190 179 178 178 184 191 190 207 222 225 224 221 230 234 232 211 197 190 188 185 181 183 185 189 190 189 189 192 195 192 188